Terminal Aerodrome Forecast
Issued by NWS

Home | Current Version | Previous Version | Graphics & Text | Print | Product List | Glossary On
Versions: 1 2 3 4 5 6 7 8 9 10 11 12 13 14 15 16 17 18 19 20 21 22
000
FTUS43 KBIS 260500
TAFJMS
TAF
KJMS 260525Z 2606/2706 26005KT P6SM SCT035
     FM261700 26008KT P6SM BKN080
     FM262300 24005KT P6SM SCT040 BKN080
     FM270400 20004KT P6SM SCT040=

USA.gov is the U.S. government's official web portal to all federal, state and local government web resources and services.